Location: Newark
(25.6108°S, 54.5803°W)
Time: 17:02:51
(UTC+00:00)

Courier 1B Rocket - Pass Details

Date: 02 November 2020
Orbit: 920 x 1202 km, 28.2° (Epoch: 22 November)

Event Time Altitude Azimuth Distance (km) Brightness Sun altitude
Rises 06:18:13 0° 308° (NW) 4,089 - -31.0°
Reaches altitude 10° 06:21:13 10° 314° (NW) 3,120 - -30.4°
Exits shadow 06:28:02 46° 12° (NNE) 1,534 5.8 -29.2°
Maximum altitude 06:28:35 47° 24° (NNE) 1,517 5.8 -29.1°
Drops below altitude 10° 06:35:41 10° 95° (E) 3,003 8.3 -27.8°
Sets 06:38:30 0° 101° (E) 3,924 9.2 -27.3°
